Home > Weather > Ottawa > Past weeks

Flag for Canada Past Weather in Ottawa, Ontario, Canada — Yesterday and Last 2 Weeks

Now
66 °F

Passing clouds.


Feels Like: 66 °F
Forecast: 69 / 80 °F
Wind: 13 mph from West

Location: Ottawa Int'L. Ont.

Current Time: Jul 23, 2016 at 7:17:41 AM

Latest Report: Jul 23, 2016 at 6:00 AM


Visibility: 15 mi

Pressure: 29.80 "Hg

Humidity: 88%

Dew Point: 63 °F

Location of OttawaLocation

Past Weather in Ottawa — Graph

°F

Ottawa Temperature Yesterday

Maximum temperature yesterday: 93 °F (at 5:00 PM)
Minimum temperature yesterday: 70 °F (at 10:00 PM)
Average temperature yesterday: 80 °F

High & Low Weather Summary for the Past Weeks

 TemperatureHumidityPressure
High93 °F (Jul 22, 5:00 PM)100% (Jul 9, 4:00 AM)30.23 "Hg (Jul 9, 4:00 AM)
Low52 °F (Jul 19, 6:00 AM)34% (Jul 22, 5:00 PM)29.64 "Hg (Jul 14, 6:00 PM)
Average70 °F72%29.92 "Hg
* Reported Jul 8 6:00 AM — Jul 23 6:00 AM, Ottawa, Weather by CustomWeather, © 2016

Note: Actual official high and low records may vary slightly from our data, if they occured in-between our weather recording intervals... More about our weather records

Advertising

Ottawa Weather History for the Previous 24 Hours

Scroll right to see more
 ConditionsComfort  
Time TempWeatherWind HumidityBarometerVisibility
6:00 AM
Sat, Jul 23
66 °FPassing clouds.13 mph88%29.80 "Hg15 mi
5:00 AM66 °FPassing clouds.10 mph88%29.79 "Hg15 mi
4:00 AM68 °FPassing clouds.6 mph83%29.78 "Hg15 mi
3:00 AM68 °FPassing clouds.5 mph83%29.76 "Hg15 mi
2:00 AM70 °FPassing clouds.8 mph78%29.76 "Hg15 mi
1:00 AM70 °FPassing clouds.12 mph78%29.76 "Hg15 mi
12:00 AM70 °FPassing clouds.10 mph78%29.76 "Hg15 mi
11:00 PM
Fri, Jul 22
72 °FPassing clouds.7 mph73%29.76 "Hg15 mi
10:00 PM70 °FPassing clouds.9 mph73%29.77 "Hg15 mi
9:00 PM72 °FThunderstorms. More clouds than sun.17 mph78%29.78 "Hg15 mi
8:47 PM75 °FThunderstorms. Mostly cloudy.17 mph61%29.76 "Hg15 mi
8:00 PM82 °FPartly sunny.22 mph51%29.73 "Hg15 mi
7:00 PM88 °FBroken clouds.9 mph46%29.69 "Hg15 mi
6:00 PM90 °FBroken clouds.12 mph41%29.69 "Hg15 mi
5:00 PM93 °FPassing clouds.15 mph34%29.69 "Hg15 mi
4:00 PM91 °FPassing clouds.16 mph38%29.71 "Hg15 mi
3:00 PM91 °FPassing clouds.16 mph38%29.73 "Hg15 mi
2:00 PM90 °FPassing clouds.13 mph43%29.74 "Hg15 mi
1:00 PM90 °FPassing clouds.16 mph46%29.75 "Hg15 mi
12:00 PM86 °FPassing clouds.16 mph52%29.76 "Hg15 mi
11:00 AM84 °FPassing clouds.12 mph58%29.75 "Hg15 mi
10:00 AM81 °FPartly sunny.15 mph66%29.76 "Hg15 mi
9:00 AM77 °FPartly sunny.13 mph74%29.76 "Hg15 mi
8:00 AM77 °FPartly sunny.10 mph74%29.75 "Hg15 mi
7:00 AM75 °FPartly sunny.8 mph78%29.74 "Hg15 mi
Weather by CustomWeather, © 2016

See weather overviewHow to use our weather pages